User: anonymous   Login
Location: Griffin Ranch
(33.6186°N, 110.6622°W)
Time: 00:54:55
(UTC-07:00)
Language:

Cosmos 1812 - Orbit

View from above orbital plane
View from above orbital plane
View from above satellite
View from above satellite

Ground track
Ground track

The orbit data is extracted from the following two-line orbital elements,

1 17295U 87003A   17017.35616862  .00000695  00000-0  36352-4 0  9998
2 17295  82.5163 293.3568 0002197 312.2419  47.8626 15.14240963636135
Epoch (UTC): 17 January 2017 08:32:52
Eccentricity: 0.0002197
inclination: 82.5163°
perigee height: 522 km
apogee height: 525 km
right ascension of ascending node: 293.3568°
argument of perigee: 312.2419°
revolutions per day: 15.14240963
mean anomaly at epoch: 47.8626°
orbit number at epoch: 63613

The dashed part of the orbit path shows where the satellite is in the earth's shadow,  

DLR